Content
SEND FEEDBACK

Daily
Averages
Monthly
Summary
United States of America

UMATAC, GUAM


Home > North America > United States > Guam
Elevation: 58 meters     Latitude: 13 17N     Longitude: 144 40E

WEATHER
 
SELECT A DAY
Number of Records: 342,166;   Date Range: 1/1/95 - 8/12/14
 
SHARE

PRINT THIS DATA

[ ← Previous Day ]
WEATHER ALMANAC - 22 FEBRUARY, 2013
[ Next Day → ]
[ °F ]   °C
Weather ElementAverageHighLow
Temperature26.2 °C29 °C (12:55 pm)24.7 °C (5:55 am)
Dewpoint22.5 °C24.4 °C (10:55 am)20.9 °C (5:55 am)
Humidity80.4 %89 % (10:52 am)70 % (9:55 am)
Barometer1010.8 hPa1013.5 hPa (11:42 pm)1008.8 hPa (3:39 am)
Wind Speed27.4 km/h37 km/h (2:03 pm)
Wind Gust44.4 km/h (12:22 pm)
Weather ElementAverage
Visibility15.8 km
Wind DirectionENE (60.1 °)

Weather ElementTotal
Precipitation---
Cooling Degree Days8.6 (Base 18.3)
Growing Degree Days16.9 (Base 10)
Averaged from 91 records on 22 February, 2013
WEATHER CONDITIONS BREAKOUT
WIND DIRECTION BREAKOUT
WEATHER BY HOUR - 22 FEBRUARY, 2013
[ °F ]   °C
Local TimeTemperatureDewpointHumidityBarometerVisibilityWind DirectionWind SpeedGust SpeedPrecipitationEventsConditions
1:36 AM25 °C22 °C83 %1010.2 hPa16.1 kmENE (60°)25.9 km/hMostly Cloudy
1:46 AM25 °C22 °C83 %1009.8 hPa16.1 kmENE (60°)25.9 km/hScattered Clouds
1:49 AM25 °C22 °C83 %1009.8 hPa16.1 kmENE (60°)27.8 km/hMostly Cloudy
1:55 AM25.2 °C22.5 °C85 %1009.5 hPa16.1 kmENE (70°)22.2 km/hMostly Cloudy
2:19 AM25 °C21 °C78 %1009.5 hPa16.1 kmENE (60°)27.8 km/hScattered Clouds
2:35 AM25 °C21 °C78 %1009.1 hPa16.1 kmENE (70°)24.1 km/h38.9 km/hMostly Cloudy
2:39 AM25 °C21 °C78 %1009.1 hPa16.1 kmENE (70°)27.8 km/h38.9 km/hScattered Clouds
2:55 AM24.9 °C21.3 °C80 %1009.1 hPa16.1 kmENE (70°)25.9 km/hPartly Cloudy
3:39 AM25 °C22 °C83 %1008.8 hPa16.1 kmENE (70°)24.1 km/hMostly Cloudy
3:55 AM25 °C22.1 °C84 %1008.8 hPa16.1 kmENE (60°)20.4 km/hMostly Cloudy
4:22 AM25 °C21 °C78 %1008.8 hPa16.1 kmENE (70°)29.6 km/hScattered Clouds
4:35 AM25 °C22 °C83 %1009.1 hPa16.1 kmENE (70°)29.6 km/h38.9 km/hMostly Cloudy
4:38 AM25 °C21 °C78 %1009.1 hPa16.1 kmENE (70°)31.5 km/h38.9 km/hScattered Clouds
4:55 AM25 °C21.4 °C80 %1009.1 hPa16.1 kmEast (80°)24.1 km/hScattered Clouds
5:55 AM24.7 °C20.9 °C79 %1009.5 hPa16.1 kmEast (80°)27.8 km/hScattered Clouds
6:55 AM24.7 °C21 °C80 %1010.5 hPa16.1 kmEast (80°)24.1 km/hScattered Clouds
7:09 AM25 °C21 °C78 %1010.8 hPa16.1 kmENE (70°)25.9 km/hMostly Cloudy
7:42 AM26 °C21 °C74 %1011.5 hPa16.1 kmENE (70°)22.2 km/hScattered Clouds
7:47 AM26 °C21 °C74 %1011.5 hPa16.1 kmENE (70°)24.1 km/hRainLight Rain
7:55 AM25.8 °C21.4 °C77 %1011.5 hPa16.1 kmENE (70°)24.1 km/h0 mmRainLight Rain
7:56 AM26 °C21 °C74 %1011.5 hPa16.1 kmENE (70°)24.1 km/hScattered Clouds
8:55 AM27 °C21.9 °C73 %1011.9 hPa16.1 kmENE (70°)22.2 km/hPartly Cloudy
9:30 AM26 °C23 °C83 %1012.2 hPa16.1 kmENE (60°)29.6 km/hLight Drizzle
9:37 AM26 °C23 °C83 %1012.2 hPa16.1 kmENE (60°)27.8 km/hScattered Clouds
9:55 AM27.6 °C21.6 °C70 %1012.2 hPa16.1 kmENE (60°)24.1 km/h0 mmPartly Cloudy
10:44 AM28 °C23 °C74 %1011.9 hPa9.7 kmENE (60°)25.9 km/hRainLight Rain
10:52 AM26 °C24 °C89 %1011.9 hPa6.4 kmENE (60°)25.9 km/h37 km/hRainLight Rain
10:55 AM26.4 °C24.4 °C89 %1011.9 hPa11.3 kmENE (60°)27.8 km/h38.9 km/h0 mmMostly Cloudy
10:57 AM27 °C24 °C84 %1011.9 hPa16.1 kmENE (60°)25.9 km/h38.9 km/hScattered Clouds
11:11 AM28 °C24 °C79 %1011.5 hPa16.1 kmENE (70°)27.8 km/h37 km/hMostly Cloudy
11:55 AM27.3 °C22.6 °C75 %1011.2 hPa16.1 kmENE (60°)35.2 km/hMostly Cloudy
12:22 PM28 °C23 °C74 %1010.8 hPa16.1 kmENE (60°)29.6 km/h44.4 km/hScattered Clouds
12:24 PM28 °C23 °C74 %1010.8 hPa16.1 kmENE (60°)33.3 km/h42.6 km/hMostly Cloudy
12:27 PM28 °C23 °C74 %1010.8 hPa16.1 kmENE (70°)27.8 km/hScattered Clouds
12:55 PM29 °C23.4 °C72 %1010.2 hPa16.1 kmNE (50°)35.2 km/hScattered Clouds
1:16 PM29 °C23 °C70 %1010.2 hPa16.1 kmENE (60°)35.2 km/hMostly Cloudy
1:34 PM28 °C23 °C74 %1010.2 hPa16.1 kmENE (60°)33.3 km/hScattered Clouds
1:37 PM28 °C23 °C74 %1010.2 hPa16.1 kmENE (60°)33.3 km/hMostly Cloudy
1:51 PM28 °C23 °C74 %1009.8 hPa16.1 kmENE (60°)31.5 km/hScattered Clouds
1:55 PM28.4 °C22.8 °C71 %1009.8 hPa16.1 kmENE (60°)31.5 km/hScattered Clouds
2:03 PM28 °C23 °C74 %1009.8 hPa16.1 kmNE (50°)37 km/hMostly Cloudy
2:18 PM28 °C23 °C74 %1009.5 hPa16.1 kmENE (60°)24.1 km/h40.7 km/hScattered Clouds
2:21 PM29 °C23 °C70 %1009.5 hPa16.1 kmENE (60°)25.9 km/h40.7 km/hMostly Cloudy
2:36 PM29 °C23 °C70 %1009.5 hPa16.1 kmNE (50°)31.5 km/hScattered Clouds
2:47 PM28 °C23 °C74 %1009.5 hPa16.1 kmNE (50°)35.2 km/hMostly Cloudy
2:55 PM27.9 °C22.8 °C74 %1009.5 hPa16.1 kmENE (60°)33.3 km/hScattered Clouds
3:01 PM28 °C23 °C74 %1009.5 hPa16.1 kmENE (60°)29.6 km/hMostly Cloudy
3:36 PM28 °C22 °C70 %1009.1 hPa16.1 kmENE (60°)27.8 km/h40.7 km/hScattered Clouds
3:55 PM27.9 °C22.9 °C74 %1009.5 hPa16.1 kmNE (50°)29.6 km/hPartly Cloudy
4:55 PM26.9 °C22.8 °C78 %1009.8 hPa16.1 kmENE (60°)27.8 km/hScattered Clouds
5:02 PM27 °C23 °C79 %1009.8 hPa16.1 kmENE (60°)29.6 km/hMostly Cloudy
5:12 PM26 °C22 °C78 %1010.2 hPa16.1 kmENE (60°)31.5 km/hMostly Cloudy
5:24 PM26 °C22 °C78 %1010.2 hPa16.1 kmNE (50°)31.5 km/h42.6 km/hScattered Clouds
5:32 PM26 °C22 °C78 %1010.2 hPa16.1 kmENE (60°)29.6 km/hMostly Cloudy
5:34 PM26 °C22 °C78 %1010.2 hPa16.1 kmNE (50°)29.6 km/hScattered Clouds
5:55 PM26.1 °C22.3 °C79 %1010.5 hPa16.1 kmNE (50°)31.5 km/hScattered Clouds
6:04 PM26 °C23 °C83 %1010.5 hPa16.1 kmNE (50°)31.5 km/hMostly Cloudy
6:06 PM26 °C22 °C78 %1010.5 hPa16.1 kmNE (50°)29.6 km/hMostly Cloudy
6:12 PM26 °C22 °C78 %1010.5 hPa16.1 kmENE (60°)27.8 km/hMostly Cloudy
6:13 PM26 °C22 °C78 %1010.5 hPa16.1 kmENE (60°)27.8 km/hScattered Clouds
6:55 PM25.3 °C22.5 °C84 %1010.8 hPa16.1 kmENE (60°)33.3 km/hScattered Clouds
7:32 PM26 °C22 °C78 %1011.2 hPa16.1 kmNE (50°)31.5 km/hMostly Cloudy
7:41 PM26 °C22 °C78 %1011.2 hPa16.1 kmENE (60°)27.8 km/hScattered Clouds
7:52 PM26 °C23 °C83 %1011.5 hPa16.1 kmNE (50°)27.8 km/hMostly Cloudy
7:55 PM25.6 °C22.7 °C84 %1011.5 hPa16.1 kmNE (50°)25.9 km/hMostly Cloudy
8:01 PM26 °C23 °C83 %1011.5 hPa16.1 kmNE (50°)27.8 km/hMostly Cloudy
8:09 PM26 °C23 °C83 %1011.5 hPa16.1 kmNE (50°)25.9 km/hMostly Cloudy
8:11 PM26 °C23 °C83 %1011.5 hPa16.1 kmNE (50°)24.1 km/hMostly Cloudy
8:17 PM26 °C23 °C83 %1011.9 hPa16.1 kmNE (40°)25.9 km/hOvercast
8:20 PM25 °C23 °C89 %1011.9 hPa16.1 kmNE (40°)24.1 km/hMostly Cloudy
8:55 PM25.2 °C22.9 °C87 %1011.9 hPa16.1 kmENE (60°)20.4 km/hScattered Clouds
9:07 PM25 °C23 °C89 %1012.2 hPa16.1 kmENE (60°)25.9 km/hMostly Cloudy
9:09 PM25 °C23 °C89 %1012.2 hPa16.1 kmENE (60°)24.1 km/hScattered Clouds
9:13 PM25 °C23 °C89 %1012.2 hPa16.1 kmENE (60°)24.1 km/hMostly Cloudy
9:35 PM26 °C23 °C83 %1012.5 hPa16.1 kmENE (60°)24.1 km/hMostly Cloudy
9:52 PM25 °C23 °C89 %1012.5 hPa16.1 kmENE (60°)25.9 km/hMostly Cloudy
9:55 PM25.5 °C22.8 °C85 %1012.5 hPa16.1 kmENE (60°)24.1 km/hMostly Cloudy
9:59 PM25 °C23 °C89 %1012.5 hPa16.1 kmNE (50°)25.9 km/hMostly Cloudy
10:01 PM26 °C23 °C83 %1012.5 hPa16.1 kmNE (50°)25.9 km/hMostly Cloudy
10:17 PM25 °C23 °C89 %1012.5 hPa16.1 kmENE (60°)27.8 km/hMostly Cloudy
10:20 PM25 °C23 °C89 %1012.5 hPa16.1 kmENE (60°)25.9 km/hMostly Cloudy
10:23 PM25 °C23 °C89 %1012.5 hPa16.1 kmENE (60°)25.9 km/hMostly Cloudy
10:35 PM25 °C23 °C89 %1012.5 hPa16.1 kmENE (60°)27.8 km/hMostly Cloudy
10:37 PM25 °C23 °C89 %1012.5 hPa16.1 kmENE (60°)24.1 km/hMostly Cloudy
10:55 PM25.4 °C22.8 °C85 %1012.5 hPa16.1 kmENE (60°)24.1 km/hMostly Cloudy
11:07 PM25 °C23 °C89 %1012.5 hPa12.9 kmENE (60°)22.2 km/hRainLight Rain
11:15 PM25 °C23 °C89 %1012.2 hPa12.9 kmENE (60°)27.8 km/h37 km/hRainLight Rain
11:20 PM25 °C23 °C89 %1012.5 hPa16.1 kmENE (60°)24.1 km/h37 km/hMostly Cloudy
11:21 PM25 °C23 °C89 %1012.5 hPa16.1 kmENE (60°)24.1 km/h37 km/hScattered Clouds
11:42 PM25 °C23 °C89 %1013.5 hPa16.1 kmENE (60°)18.5 km/hClear
11:55 PM24.9 °C22.9 °C89 %1012.2 hPa16.1 kmENE (70°)18.5 km/h0 mmScattered Clouds
Hourly data recorded from PGUA, located 0 kilometers away from Umatac, Guam







STORIES FROM OUR PARTNERS